This is the latest recevied weather packets stored in our database for station/object KD5FHA. If no packets are shown the sender has not sent any weather packets the latest 10 day(s).
| Time | Temp. | Humidity | Pressure | Rain* | Wind** | Luminosity | Snow |
|---|---|---|---|---|---|---|---|
| 1778006264 | 29.44° C | 66% | 1006.3 hPa | 0 mm | - | 712 W/m² | - |
| 1778005962 | 28.89° C | 67% | 1006.2 hPa | 0 mm | - | 774 W/m² | - |
| 1778005658 | 28.89° C | 66% | 1006.3 hPa | 0 mm | - | 832 W/m² | - |
| 1778005355 | 28.89° C | 67% | 1006.4 hPa | 0 mm | - | 698 W/m² | - |
| 1778005051 | 28.33° C | 69% | 1006.5 hPa | 0 mm | - | 861 W/m² | - |
| 1778004749 | 28.33° C | 69% | 1006.2 hPa | 0 mm | - | 684 W/m² | - |
| 1778004445 | 27.78° C | 69% | 1006.2 hPa | 0 mm | - | 545 W/m² | - |
| 1778004142 | 28.33° C | 68% | 1006.2 hPa | 0 mm | - | 661 W/m² | - |
| 1778003839 | 28.33° C | 69% | 1006.4 hPa | 0 mm | - | 524 W/m² | - |
| 1778003535 | 28.33° C | 68% | 1006.5 hPa | 0 mm | - | 632 W/m² | - |
| 1778003231 | 27.78° C | 68% | 1006.4 hPa | 0 mm | - | 596 W/m² | - |
| 1778002929 | 27.78° C | 70% | 1006.4 hPa | 0 mm | - | 883 W/m² | - |
| 1778002624 | 27.22° C | 70% | 1006.4 hPa | 0 mm | - | 582 W/m² | - |
| 1778002321 | 27.78° C | 69% | 1006.5 hPa | 0 mm | - | 498 W/m² | - |
| 1778002019 | 27.78° C | 70% | 1006.3 hPa | 0 mm | - | 582 W/m² | - |
| 1778001715 | 27.78° C | 70% | 1006.4 hPa | 0 mm | - | 573 W/m² | - |
| 1778001415 | 27.22° C | 70% | 1006.4 hPa | 0 mm | - | 674 W/m² | - |
| 1778001113 | 27.22° C | 71% | 1006.3 hPa | 0 mm | - | 492 W/m² | - |
| 1778000810 | 27.22° C | 71% | 1006.3 hPa | 0 mm | - | 581 W/m² | - |
| 1778000506 | 26.67° C | 72% | 1006.4 hPa | 0 mm | - | 488 W/m² | - |
| 1778000206 | 26.67° C | 71% | 1006.3 hPa | 0 mm | - | 459 W/m² | - |
| 1777999903 | 26.67° C | 71% | 1006 hPa | 0 mm | - | 404 W/m² | - |
| 1777999598 | 26.67° C | 71% | 1006.2 hPa | 0 mm | - | 437 W/m² | - |
| 1777999296 | 26.67° C | 72% | 1006.1 hPa | 0 mm | - | 458 W/m² | - |
| 1777998994 | 26.67° C | 73% | 1005.9 hPa | 0 mm | - | 610 W/m² | - |
* Rain latest hour (hover to see other rain measurements)
** Current wind speed in m/s (hover to see current wind gust speed)